Probability
0 0 0 0 0 0 0 0 0 0 0 0 0 0 0 0 0 0 0 0 0 0 0 0 0 0 0 0 0 0 0 0 0 0 0 0 0 0 0 0 0 0 0
0 0 0 0 0 0 0 0 0 0 0 0 0 0 0 0 0 0 0 0 0 0 0 0 0 0 0 0 0 0 0 0 0 0 0 0 0 0 0 0 0 0 0
0 0 0 0 0 0 0 0 0 0 0 0 0 0 0 0 0 0 0 0 0 0 0 0 0 0 0 0 0 0 0 0 0 0 0 0 0 0 0 0 0 0 0
0 0 0 0 0 0 0 0 0 0 0 0 0 0 0 0 0 0 0 0 0 0 0 0 0 0 0 0 0 0 0 0 0 0 0 0 0 0 0 0 0 0 0
0 0 0 0 0 0 0 0 0 0 0 0 0 0 0 0 0 0 0 0 0 0 0 0 0 0 0 0 0 0 0 0 0 0 0 0 0 0 0 0 0 0 0
0 0 0 0 0 0 0 0 0 0 0 0 0 0 0 0 0 0 0 0 0 0 0 0 0 0 0 0 0 0 0 0 0 0 0 0 0 0 0 0 0 0 0
0 0 0 0 0 0 0 0 0 0 0 0 0 0 0 0 0 0 0 0 0 0 0 0 0 0 0 0 0 0 0 0 0 0 0 0 0 0 0 0 0 0 0
0 0 0 0 0 0 0 0 0 0 0 0 0 0 0 0 0 0 0 0 0 0 0 0 0 0 0 0 0 0 0 0 0 0 0 0 0 0 0 0 0 0 0
0 0 0 0 0 0 0 0 0 0 0 0 0 0 0 0 0 0 0 0 0 0 0 0 0 0 0 0 0 0 0 0 0 0 0 0 0 0 0 0 0 0 0
0 0 0 0 0 0 0 0 0 0 0 0 0 0 0 0 0 0 0 0 0 0 0 0 0 0 0 0 0 0 0 0 0 0 0 0 0 0 0 0 0 0 0
0 0 0 0 0 0 0 0 0 0 0 0 0 0 0 0 0 0 0 0 0 0 0 0 0 0 0 0 0 0 0 0 0 0 0 0 0 0 0 0 0 0 0
0 0 0 0 0 0 0 0 0 0 0 0 0 0 0 0 0 0 0 0 0 0 0 0 0 0 0 0 0 0 0 0 0 0 0 0 0 0 0 0 0 0 0
0 0 0 0 0 0 0 0 0 0 0 0 0 0 0 0 0 0 0 0 0 0 0 0 0 0 0 0 0 0 0 0 0 0 0 0 0 0 0 0 0 0 0
0 0 0 0 0 0 0 0 0 0 0 0 0 0 0 0 0 0 0 0 0 0 0 0 0 0 0 0 0 0 0 0 0 0 0 0 0 0 0 0 0 0 0
0 0 0 0 0 0 0 0 0 0 0 0 0 0 0 0 0 0 0 0 0 0 0 0 0 0 0 0 0 0 0 0 0 0 0 0 0 0 0 0 0 0 0
0 0 0 0 0 0 0 0 0 0 0 0 0 0 0 0 0 0 0 0 0 0 0 0 0 0 0 0 0 0 0 0 0 0 0 0 0 0 0 0 0 0 0
0 0 0 0 0 0 0 0 0 0 0 0 0 0 0 0 0 0 0 0 0 0 0 0 0 0 0 0 0 0 0 0 0 0 0 0 0 0 0 0 0 0 0
0 0 0 0 0 0 0 0 0 0 0 0 0 0 0 0 0 0 0 0 0 0 0 0 0 0 0 0 0 0 0 0 0 0 0 0 0 0 0 0 0 0 0
0 0 0 0 0 0 0 0 0 0 0 0 0 0 0 0 0 0 0 0 0 0 0 0 0 0 0 0 0 0 0 0 0 0 0 0 0 0 0 0 0 0 0
0 0 0 0 0 0 0 0 0 0 0 0 0 0 0 0 0 0 0 0 0 0 0 0 0 0 0 0 0 0 0 0 0 0 0 0 0 0 0 0 0 0 0
0 0 0 0 0 0 0 0 0 0 0 0 0 0 0 0 0 0 0 0 0 0 0 0 0 0 0 0 0 0 0 0 0 0 0 0 0 0 0 0 0 0 0
0 0 0 0 0 0 0 0 0 0 0 0 0 0 0 0 0 0 0 0 0 0 0 0 0 0 0 0 0 0 0 0 0 0 0 0 0 0 0 0 0 0 0
0 0 0 0 0 0 0 0 0 0 0 0 0 0 0 0 0 0 0 0 0 0 0 0 0 0 0 0 0 0 0 0 0 0 0 0 0 0 0 0 0 0 0
0 0 0 0 0 0 0 0 0 0 0 0 0 0 0 0 0 0 0 0 0 0 0 0 0 0 0 0 0 0 0 0 0 0 0 0 0 0 0 0 0 0 0
0 0 0 0 0 0 0 0 0 0 0 0 0 0 0 0 0 0 0 0 0 0 0 0 0 0 0 0 0 0 0 0 0 0 0 0 0 0 0 0 0 0 0
0 0 0 0 0 0 0 0 0 0 0 0 0 0 0 0 0 0 0 0 0 0 0 0 0 0 0 0 0 0 0 0 0 0 0 0 0 0 0 0 0 0 0
Wind_Speed
3 3 4 4 4 4 4 5 5 5 5 5 6 6 6 6 6 6 6 7 7 7 7 7 8 8 6 6 5 6 6 7 9 8 6 6 8 8 7 7 8 8 7
4 4 4 4 4 4 4 5 5 6 6 6 6 6 6 6 6 6 7 7 8 8 8 8 9 7 8 7 6 7 7 7 8 11 8 6 8 8 8 8 7 7 7
3 3 4 4 4 5 5 5 5 6 6 6 6 6 7 7 7 7 7 8 8 8 8 9 9 9 9 7 8 8 7 7 7 9 9 7 6 6 7 7 8 7 7
3 3 4 4 4 5 5 5 5 6 6 6 7 7 7 7 7 7 7 8 8 9 9 9 9 9 9 9 8 8 8 8 8 8 8 7 6 6 6 6 7 6 7
3 3 4 4 4 5 5 5 5 6 6 6 7 8 7 7 6 8 8 9 9 9 9 9 9 9 10 9 8 8 9 8 8 8 8 7 6 5 6 6 7 7 7
3 3 4 4 4 5 5 5 6 6 6 6 7 7 8 6 9 11 10 9 9 10 10 9 9 9 8 11 12 12 12 10 10 9 8 9 9 8 7 7 7 7 8
3 3 4 4 4 5 5 6 6 6 6 7 7 7 8 9 11 12 12 10 10 9 9 9 8 7 9 9 10 12 11 12 13 11 12 11 11 9 9 9 9 9 9
3 3 4 4 5 5 5 6 6 6 6 7 7 8 9 9 12 12 13 10 9 9 9 10 9 9 9 9 10 10 10 10 10 9 10 11 10 9 9 10 10 9 9
3 4 4 5 5 6 6 7 6 6 7 7 8 8 9 10 12 13 13 8 8 9 9 9 10 10 11 12 11 11 11 10 10 11 13 14 14 13 10 7 6 7 8
4 5 5 5 6 6 7 7 6 6 7 7 8 8 9 10 11 13 13 7 8 8 8 8 9 10 12 13 11 10 11 10 9 9 10 11 10 10 10 8 7 7 7
4 5 5 5 6 7 7 6 7 7 7 7 8 8 8 9 11 12 13 8 8 9 8 8 7 12 14 15 13 11 12 12 10 9 8 8 7 6 6 6 6 6 7
4 5 5 6 5 5 6 6 6 6 7 7 7 8 7 7 8 11 13 12 12 10 9 8 8 14 15 16 12 12 14 12 8 7 7 7 6 6 5 5 6 6 6
4 5 5 6 5 5 6 6 6 5 6 6 6 7 7 6 8 12 13 14 15 10 9 13 15 16 15 11 11 11 9 6 6 7 7 6 6 6 6 5 5 5 6
4 5 5 5 6 5 5 5 5 5 6 6 7 8 8 8 7 7 7 8 10 10 9 10 14 14 11 9 7 6 5 5 6 6 6 5 5 5 5 5 5 5 5
5 5 5 5 5 5 5 5 6 6 7 8 8 8 9 9 10 14 11 8 8 9 9 8 7 6 6 5 5 5 5 5 5 5 5 5 5 5 5 5 5 5 6
4 5 4 4 4 5 6 6 9 10 12 14 14 13 11 14 18 18 17 16 16 14 9 7 7 6 6 6 5 5 5 5 5 5 5 6 6 6 5 5 5 5 6
5 5 4 4 4 5 5 6 7 8 10 12 14 15 16 17 17 17 16 16 14 11 7 6 6 6 6 5 5 5 6 5 5 5 5 6 6 5 5 5 5 5 5
5 5 5 4 5 5 5 6 6 7 8 8 10 14 16 17 17 16 16 13 8 6 5 6 6 6 5 5 5 5 5 5 5 5 5 5 5 5 5 5 5 6 5
5 4 4 4 5 5 5 6 6 7 7 8 8 9 11 14 15 14 12 7 7 6 6 6 5 5 5 5 5 5 5 5 5 5 5 5 5 5 5 5 5 6 6
4 5 5 4 5 5 5 5 6 6 7 7 8 8 7 8 7 8 7 6 6 6 6 6 5 5 5 5 5 5 5 5 5 5 5 5 5 5 5 6 6 6 6
4 4 5 5 5 5 5 5 6 6 7 7 8 9 12 8 7 8 7 6 6 6 6 6 5 5 5 5 5 5 6 5 5 5 5 5 5 5 5 5 6 5 5
4 4 4 4 5 5 5 6 6 7 8 9 8 9 12 7 6 7 6 6 6 6 6 6 6 5 5 5 5 5 6 6 5 5 5 5 5 5 5 5 5 5 5
4 4 4 5 5 6 6 6 6 6 7 8 7 7 7 6 6 7 7 7 6 6 5 5 6 5 5 5 5 5 6 6 6 5 5 5 5 5 5 5 6 6 6
4 5 5 5 5 5 6 6 6 7 7 7 7 7 7 7 7 7 7 6 6 6 6 5 6 7 9 7 5 5 5 6 6 5 7 6 6 5 5 5 6 6 6
4 5 5 5 5 5 6 6 6 6 7 7 7 7 7 7 7 7 7 6 7 7 7 7 6 6 8 9 8 7 8 9 8 6 5 5 6 6 5 6 5 6 5
4 5 5 5 5 5 5 6 6 7 7 6 6 7 7 7 7 7 7 6 6 6 7 6 7 8 9 8 9 9 9 9 8 8 6 4 5 5 5 5 6 5 5
Wind_Direction
328 329 332 334 332 328 325 328 327 323 322 321 322 321 319 317 318 316 310 310 306 305 305 302 301 299 291 287 285 281 277 274 276 284 286 285 277 272 275 274 275 274 269
324 326 326 329 330 332 329 328 327 323 323 321 319 314 313 314 314 309 306 308 304 303 305 303 301 303 298 295 290 285 281 276 275 280 283 283 282 280 278 276 275 274 273
324 323 326 330 332 329 326 324 323 320 319 319 316 312 311 309 306 304 302 300 298 297 298 297 298 299 296 295 294 290 287 286 280 277 280 281 281 283 285 282 279 274 273
318 316 319 323 323 323 324 324 321 318 314 314 312 308 305 304 302 302 300 298 297 296 295 294 294 293 293 295 293 293 293 290 285 281 280 282 282 287 285 282 281 276 274
312 311 313 316 319 322 323 322 320 317 313 313 309 306 304 301 300 302 301 298 297 297 296 294 293 293 293 292 290 292 293 290 287 284 283 285 283 287 280 280 277 283 277
296 298 303 308 313 314 313 313 312 311 312 312 308 307 305 301 303 303 302 299 297 295 295 296 296 292 291 291 286 284 281 281 282 281 282 280 283 283 287 284 283 282 281
286 291 299 303 304 305 307 306 305 307 307 306 305 304 301 302 307 307 306 302 294 290 291 293 293 294 295 296 294 289 283 277 273 276 277 277 282 284 285 283 280 280 280
290 296 302 302 298 300 301 300 301 301 298 299 300 300 299 300 305 306 307 302 294 290 290 290 289 292 294 296 295 292 290 287 284 279 277 280 283 286 281 281 282 284 285
290 295 300 299 297 298 297 297 297 296 295 296 296 297 296 297 301 303 303 298 292 292 291 290 289 290 294 297 294 290 291 291 292 283 279 280 283 283 280 277 276 277 280
287 291 294 293 290 290 291 292 293 291 290 294 293 294 293 294 299 300 300 293 292 292 292 288 285 286 291 295 291 287 287 292 296 295 288 285 282 278 273 266 266 267 276
289 290 290 290 286 286 289 290 292 291 291 291 291 292 293 294 297 300 300 295 293 293 291 289 288 291 293 294 292 287 287 294 292 288 286 284 282 279 276 273 273 267 267
289 286 287 288 286 286 288 290 290 290 290 290 291 293 292 294 294 298 300 296 294 290 289 290 291 293 294 294 292 289 293 295 288 284 279 277 278 279 282 283 280 276 273
283 281 284 286 283 284 284 287 289 286 284 288 289 291 294 294 293 295 297 296 294 290 288 290 293 293 293 291 289 293 295 289 287 285 280 280 282 282 283 282 280 276 277
271 280 284 285 287 288 284 281 283 284 284 286 289 291 294 295 295 298 297 296 295 292 291 292 292 290 289 290 292 293 290 289 289 286 288 290 292 288 281 281 281 282 278
270 276 281 281 285 289 285 279 280 276 279 287 289 291 294 294 295 299 299 296 295 292 297 290 286 286 284 283 286 290 291 290 287 287 288 289 286 283 286 289 280 276 271
268 274 277 281 284 285 290 292 285 284 289 289 288 289 289 289 297 299 298 297 297 296 293 283 284 283 283 284 285 287 288 287 288 287 283 280 280 281 284 284 283 278 272
258 268 273 276 279 283 286 291 298 299 292 293 295 297 295 298 300 301 300 299 294 292 282 281 283 284 285 285 284 284 285 285 284 279 277 277 277 276 277 277 277 277 276
255 260 263 268 272 276 280 283 287 294 301 300 301 301 303 305 305 305 304 300 290 285 277 278 280 282 284 285 285 285 287 287 281 279 277 276 275 274 271 269 270 273 275
253 257 261 268 270 272 275 277 280 283 286 293 300 302 306 306 306 304 306 293 285 282 280 279 280 281 283 285 286 286 284 282 283 284 279 277 276 274 269 266 267 269 271
250 259 266 269 270 271 272 275 280 283 286 289 292 299 307 305 302 304 301 291 285 281 280 280 283 284 285 283 283 284 283 281 282 281 281 278 276 273 270 269 265 264 266
253 258 259 265 265 269 271 274 277 280 283 286 288 294 299 299 297 296 294 292 289 286 285 285 285 286 284 284 283 280 280 282 282 282 281 279 276 273 270 269 269 265 265
249 257 260 262 267 267 271 274 275 277 281 284 290 296 300 297 292 292 293 292 291 290 290 287 284 282 280 281 281 280 279 278 279 282 282 280 276 274 272 269 269 266 262
250 258 262 262 263 268 270 270 272 275 279 283 287 292 294 292 291 292 293 295 296 295 294 289 286 286 285 284 281 276 275 276 278 279 279 279 276 273 270 269 268 269 263
250 256 260 263 265 267 269 273 274 275 278 282 285 287 288 289 290 291 292 293 294 294 293 289 285 284 288 291 289 284 279 280 282 278 273 270 273 273 270 269 271 269 265
248 253 257 260 263 267 271 273 275 277 279 281 284 286 288 289 289 290 291 292 293 292 294 294 289 288 288 290 291 289 287 287 285 278 269 264 265 268 269 269 269 269 266
248 252 255 258 260 263 267 271 274 277 279 280 282 284 285 286 287 288 290 291 293 294 295 294 292 293 294 294 291 289 288 287 284 277 268 261 261 264 266 265 266 267 265